Location: El Escondido
(32.5111°N, 116.6697°W)
Time: 15:26:20
(UTC+00:00)

Cosmos 1745 Rocket - Pass Details

Date: 03 August 2024
Orbit: 951 x 998 km, 83.0° (Epoch: 08 September)

Event Time Altitude Azimuth Distance (km) Brightness Sun altitude
Rises 11:58:15 0° 357° (N) 3,630 7.4 -13.1°
Reaches altitude 10° 12:00:47 10° 1° (N) 2,682 6.7 -12.6°
Maximum altitude 12:06:52 66° 83° (E) 1,035 4.4 -11.5°
Drops below altitude 10° 12:12:57 10° 165° (SSE) 2,682 6.2 -10.4°
Sets 12:15:28 0° 168° (SSE) 3,631 6.8 -9.9°
